Theta_e
317 318 318 319 319 330 331 331 332 332 333 332 332 332 332 331 331 331 331 330 330 330 330 330 330 330 330 330 330 329 327 321 319 318 315 317 326 335 335 337 337 335 327 309 311 310 307 313 315 315 310 311 305 304 304 305 304 303 298 291 289 287 288 291 291 289 292 292 293 293 292 296 294 294 298 300 299 300 302 305 309 312 312 314 313 311 318 322
318 317 316 316 317 320 330 331 331 332 332 332 332 332 332 332 331 331 330 330 330 330 330 330 330 330 330 330 330 328 322 320 316 316 315 326 336 338 337 336 337 333 319 308 308 307 307 307 311 316 310 311 310 303 304 304 305 296 292 292 292 289 294 295 291 291 292 292 292 292 291 293 296 295 296 296 294 300 301 301 305 306 309 310 313 318 320 322
318 317 315 315 317 318 324 330 331 332 332 332 332 332 331 331 330 329 329 330 330 330 330 330 330 330 329 329 328 326 320 317 315 312 317 335 339 337 337 336 336 330 308 306 307 309 309 309 310 312 311 309 303 299 302 301 304 297 295 292 289 293 295 295 292 294 292 294 293 293 293 291 293 295 296 296 293 297 298 297 300 303 306 308 312 318 319 322
318 319 318 318 318 319 319 328 331 331 331 331 331 331 331 330 329 329 329 329 329 329 329 330 330 329 328 328 327 320 318 313 308 312 318 335 338 340 338 336 336 328 309 307 309 308 310 311 311 310 309 308 306 306 301 302 299 298 295 290 293 294 295 296 293 292 290 292 294 292 291 292 292 294 296 292 296 296 298 298 301 303 306 310 315 318 319 320
318 322 323 320 319 317 319 321 330 331 331 331 331 330 330 329 329 329 329 329 329 329 329 329 329 329 327 327 325 319 314 304 305 316 321 335 339 339 336 336 333 312 308 308 309 308 310 309 307 307 306 301 305 306 301 300 301 298 295 294 295 293 293 295 292 290 290 289 292 289 294 293 293 294 294 296 295 295 298 301 300 303 308 313 315 317 319 320
319 319 321 323 321 320 319 321 326 331 331 331 330 330 329 329 328 328 329 329 329 329 329 329 329 327 327 326 319 316 309 292 310 313 329 335 335 339 336 332 322 307 309 308 307 307 307 306 306 302 302 301 300 300 305 297 300 295 293 294 293 292 294 295 293 292 290 291 291 291 292 293 294 293 291 295 298 295 293 296 301 304 312 315 319 318 318 319
315 315 315 318 323 321 321 324 325 330 330 331 330 330 329 329 329 328 329 329 329 329 329 329 328 327 326 322 315 314 307 306 310 313 327 335 336 336 334 327 319 308 308 306 306 305 304 303 303 300 301 300 302 300 303 298 298 295 293 294 294 292 294 294 295 290 289 292 292 290 293 294 292 294 292 294 297 294 294 293 297 309 314 316 317 318 319 319
314 314 317 316 323 325 320 318 321 321 330 331 330 330 330 329 328 328 328 329 329 329 329 328 327 326 323 316 314 309 306 305 312 312 329 334 333 332 322 310 309 309 309 306 305 305 304 302 302 302 300 298 300 301 300 301 301 296 297 296 294 292 292 293 291 290 288 289 290 291 293 293 291 293 291 293 296 295 294 305 309 313 314 314 316 318 319 319
315 315 317 320 322 323 320 318 316 315 317 330 330 330 330 329 328 328 328 328 328 329 328 327 326 325 323 317 311 307 306 311 313 315 326 328 326 321 311 309 308 309 308 309 308 307 307 301 303 304 299 300 303 301 297 301 299 298 298 296 295 293 293 293 293 291 290 291 290 293 291 290 290 291 293 296 293 292 300 308 311 312 313 313 316 317 318 318
316 317 318 319 319 321 322 320 320 318 318 321 330 330 329 329 328 328 328 328 328 328 328 327 326 324 319 315 311 304 311 313 319 322 326 322 323 317 310 309 307 308 306 305 307 306 306 302 307 307 307 303 301 299 296 302 301 295 294 294 295 297 293 294 295 293 291 292 289 293 291 292 292 291 293 292 292 296 304 310 310 312 313 314 314 316 317 318
315 316 316 318 319 320 320 322 324 324 320 317 326 330 329 329 328 328 328 328 328 328 327 326 326 322 316 317 309 304 314 318 318 322 321 321 321 315 311 307 307 308 307 304 305 308 306 305 306 306 304 302 301 301 297 298 297 294 293 297 296 296 294 293 293 292 293 294 288 292 291 289 291 292 294 294 291 298 300 307 311 312 311 313 313 315 316 317
316 315 316 317 318 319 320 322 324 324 323 320 320 329 329 328 328 328 328 328 328 328 327 326 324 320 316 315 310 309 313 316 319 321 321 320 318 316 313 308 306 308 308 305 305 308 307 307 308 305 300 303 297 299 299 301 296 294 295 296 294 296 298 294 295 293 292 293 290 290 292 291 291 291 296 292 296 297 298 303 309 310 309 310 311 312 313 316
316 316 316 317 318 318 318 321 322 324 325 323 321 327 328 328 328 327 327 327 328 327 326 326 323 320 316 308 312 314 314 317 322 321 320 315 310 310 312 308 307 307 309 307 306 307 309 308 308 303 303 301 300 297 302 296 294 295 292 290 294 293 295 299 293 293 293 294 288 292 286 284 290 295 293 291 298 297 298 300 306 308 307 308 309 312 313 312
315 317 317 318 318 318 318 319 319 321 323 323 321 326 328 328 328 327 327 327 328 327 326 326 320 318 315 309 311 310 314 322 323 321 318 315 313 308 308 308 307 305 307 305 304 304 305 304 305 303 303 300 298 301 298 298 295 294 293 291 289 290 291 293 294 293 294 293 290 292 286 286 289 293 294 290 298 298 297 298 301 304 306 308 310 312 313 313
313 316 317 317 318 318 318 318 318 319 322 322 319 317 327 327 327 327 328 327 327 326 326 323 318 315 310 310 311 311 322 323 321 320 318 315 309 305 304 304 303 302 303 305 303 304 305 305 305 300 298 300 299 296 293 295 294 293 294 291 287 289 290 291 294 293 293 294 291 292 286 289 293 296 292 289 296 296 296 296 298 301 306 307 308 311 312 314
314 314 316 316 318 318 318 318 318 318 320 322 320 316 319 326 326 327 327 327 327 326 322 316 315 314 308 305 311 324 319 315 317 320 316 317 313 308 304 302 302 302 304 302 304 304 303 303 299 296 296 298 296 292 290 291 294 292 293 289 287 284 286 290 293 291 293 293 294 291 287 286 291 291 288 288 295 297 295 295 295 299 302 304 307 309 311 311
315 315 316 317 318 317 318 318 318 318 321 321 320 318 316 324 326 327 326 326 324 322 318 312 315 314 302 310 316 311 310 314 314 316 314 314 314 306 304 304 302 300 301 302 303 304 302 298 296 296 295 294 294 293 288 288 288 290 289 290 289 286 286 288 290 292 292 292 291 290 288 287 294 291 288 289 292 294 295 296 295 297 299 302 303 305 307 309
313 313 313 315 317 317 317 317 318 318 319 320 318 317 316 321 327 326 324 320 316 314 313 316 315 310 306 305 302 305 312 312 313 313 312 309 309 306 306 304 301 300 301 299 302 299 297 295 295 291 291 291 292 292 289 286 289 289 285 287 288 286 286 286 289 292 291 290 289 289 287 289 293 296 291 289 290 292 294 295 294 293 295 298 300 301 303 306
313 313 313 313 314 318 318 317 317 318 319 320 320 320 319 321 325 321 311 311 309 303 302 302 306 296 295 303 307 309 312 315 314 313 306 308 308 308 309 307 302 300 296 295 295 296 293 293 293 289 287 288 290 293 292 289 289 288 287 287 286 285 286 284 289 290 292 290 287 286 288 290 293 297 295 289 289 290 291 289 290 291 291 292 297 299 300 302
314 314 314 314 314 316 318 318 318 318 318 316 315 314 312 308 304 302 309 310 306 306 309 307 311 307 304 306 304 309 316 317 311 308 308 308 307 308 306 306 301 300 296 293 292 294 293 289 287 287 289 289 290 292 290 290 290 289 289 288 287 286 287 288 288 290 290 291 288 287 287 289 292 296 295 289 288 288 287 288 290 291 292 292 292 294 297 299
312 313 314 315 315 316 317 317 318 318 319 315 313 308 299 301 299 294 301 307 310 309 307 309 312 307 304 306 309 311 308 306 309 307 307 313 309 308 302 304 300 294 295 294 294 293 294 287 287 289 291 291 292 292 292 290 288 288 287 287 288 286 286 289 289 290 290 290 286 285 286 288 289 293 295 289 289 290 289 289 289 291 292 292 292 292 293 297
312 312 313 314 315 315 315 316 317 318 319 314 310 305 305 306 310 312 308 299 305 303 306 310 306 302 306 309 312 314 310 304 306 306 310 308 307 306 299 303 299 293 294 293 293 290 288 286 290 292 292 291 291 292 292 291 289 288 287 285 285 286 287 289 288 289 289 290 288 285 286 287 289 292 294 290 290 291 291 291 293 293 291 291 292 292 293 293
312 312 313 313 315 315 315 316 317 317 312 308 306 308 305 312 313 313 312 305 300 304 306 304 302 301 302 305 307 312 305 303 302 305 305 306 303 303 300 301 300 297 292 294 290 288 284 288 291 292 291 291 289 290 292 292 292 289 288 286 284 287 286 286 288 290 289 288 287 286 283 286 289 291 292 292 291 291 292 290 291 291 292 292 294 294 294 293
311 312 312 313 314 314 315 315 317 313 310 309 308 308 312 315 316 314 309 298 294 301 305 305 304 303 303 302 307 308 305 301 305 302 309 304 301 297 302 301 299 295 291 292 292 290 289 289 291 290 291 291 288 288 289 289 289 290 290 287 286 287 288 287 287 289 288 287 287 286 286 287 288 290 292 291 285 288 290 289 289 289 290 293 293 292 293 294
311 311 311 312 313 314 315 315 308 307 310 310 308 312 313 314 313 313 305 297 297 293 305 303 304 305 305 307 308 306 300 301 301 307 308 304 297 298 298 300 299 294 294 292 292 291 289 289 291 290 289 289 288 286 287 288 286 289 290 290 289 288 288 288 288 288 286 283 284 285 280 279 280 284 288 293 286 287 285 287 290 292 291 291 291 292 294 294
310 310 311 311 313 313 313 306 305 309 307 304 308 313 313 314 314 313 305 292 288 293 302 293 307 300 310 303 303 302 305 299 301 304 308 307 308 299 297 296 297 293 291 291 291 288 290 288 291 289 288 287 288 287 288 290 287 287 288 291 291 290 289 288 287 287 282 281 286 284 282 278 282 285 286 285 283 285 287 285 289 290 290 290 292 293 294 294
310 309 311 311 312 313 305 299 310 308 301 302 310 314 314 314 315 310 297 286 285 294 293 302 303 302 307 303 304 306 292 294 303 305 305 307 302 303 297 293 290 292 293 292 288 287 286 285 287 288 288 287 286 286 287 290 286 282 288 290 292 290 289 288 288 286 283 284 287 283 283 278 279 286 287 284 284 285 286 288 287 289 290 290 291 293 294 295
309 309 310 311 312 312 306 308 306 302 302 308 314 313 314 313 312 308 292 279 279 300 294 294 301 310 305 302 305 301 298 302 297 301 305 305 303 298 295 292 295 293 292 292 285 287 289 285 287 285 286 285 286 288 288 290 286 283 287 290 291 291 289 289 288 284 283 283 282 282 283 280 276 280 282 282 286 287 286 287 288 290 291 291 291 292 293 294
308 309 309 311 311 312 311 306 306 302 308 312 313 314 312 311 309 297 285 279 292 291 309 296 310 303 300 303 299 298 298 302 297 299 303 305 304 299 293 292 293 294 294 294 290 285 287 288 289 289 287 285 287 288 288 291 287 286 287 291 292 291 290 289 286 285 284 281 280 282 281 277 279 278 282 282 284 284 286 287 288 289 291 291 291 291 291 290
308 308 309 310 309 308 307 308 305 309 312 313 313 312 312 308 300 286 281 275 295 285 299 299 299 292 299 295 295 297 296 294 297 298 301 299 301 300 293 293 293 293 291 290 287 286 287 290 290 288 287 289 287 284 287 291 290 289 289 288 287 287 286 283 284 284 283 278 281 283 281 281 277 281 285 284 284 285 287 287 287 287 288 288 287 288 289 290
308 308 309 310 304 306 307 301 305 311 311 313 311 309 306 300 287 281 276 285 293 291 298 296 293 299 294 293 289 295 295 295 295 298 294 300 295 296 295 291 293 289 286 288 287 285 285 286 288 287 288 287 288 285 286 287 288 290 286 283 286 285 285 285 282 283 279 278 280 281 280 280 276 278 282 285 285 282 286 287 288 290 290 288 286 286 287 287
307 308 309 307 307 309 302 300 307 311 311 310 309 302 298 284 286 280 279 298 284 289 290 291 295 294 295 296 293 292 290 293 295 296 293 292 291 290 291 286 290 284 285 285 286 284 285 285 284 288 289 289 285 286 285 286 289 286 284 286 282 278 280 277 279 276 277 277 279 278 280 279 280 284 285 286 286 287 285 287 290 290 288 287 287 288 289 289
307 307 308 308 308 304 306 308 309 310 311 309 305 300 288 282 277 285 284 287 283 294 290 297 292 294 294 293 290 292 294 289 295 295 295 292 291 290 292 289 293 289 285 287 285 285 283 281 284 286 288 289 290 285 282 281 285 284 284 282 280 276 274 273 272 270 271 277 279 279 281 279 282 281 287 289 293 294 295 292 289 289 289 290 291 290 290 290
307 306 303 305 306 306 307 309 310 311 308 306 300 293 287 279 278 288 286 286 287 295 297 293 293 294 294 289 290 292 288 292 293 292 294 289 290 287 289 289 290 286 284 285 285 285 280 279 285 285 283 287 289 289 288 283 284 286 283 286 281 277 272 270 270 273 275 278 278 279 278 278 278 283 283 289 292 292 291 291 290 288 288 287 287 288 289 290
306 304 303 303 304 306 307 308 309 310 307 301 294 287 280 279 287 283 285 285 288 294 292 295 291 291 290 291 291 293 291 287 293 291 290 288 286 287 287 289 288 286 285 285 281 281 285 282 282 285 285 288 288 287 288 287 286 284 283 283 280 282 279 275 274 272 271 273 275 276 279 280 283 284 287 287 288 288 289 289 289 290 288 287 289 291 292 293
303 301 302 300 301 303 307 307 308 308 302 295 288 283 281 285 283 287 286 292 292 289 291 293 292 289 288 286 290 290 290 290 290 291 289 290 290 288 291 290 288 288 288 287 284 280 280 280 283 284 286 287 289 288 287 290 282 283 284 283 283 285 285 276 274 276 274 272 274 275 279 282 282 286 291 292 286 289 288 288 287 287 287 286 288 291 292 293
298 300 295 298 299 304 307 307 307 305 302 294 285 281 287 287 292 290 294 291 292 293 291 284 287 288 284 283 286 288 288 292 289 289 285 291 288 290 289 289 291 288 290 288 281 281 284 279 283 283 284 286 284 285 285 285 286 284 280 284 285 285 283 281 275 270 272 273 274 274 279 278 279 280 284 283 288 291 291 290 288 288 287 287 290 291 292 291
297 296 296 296 299 304 306 307 306 303 297 289 282 287 291 287 294 293 295 293 294 294 290 288 288 292 286 286 285 287 289 288 287 289 286 290 286 295 291 290 291 290 289 286 287 282 286 278 283 283 283 286 284 286 287 287 286 285 282 287 287 278 277 277 275 273 268 268 271 271 275 277 281 284 283 284 283 288 291 292 288 289 288 289 290 290 290 288
296 294 289 295 301 303 305 307 303 297 291 285 284 284 289 290 295 293 295 295 296 294 290 291 288 290 291 287 287 289 290 287 289 287 286 288 286 293 292 293 289 290 290 287 285 283 284 277 279 283 284 285 286 286 282 283 286 286 286 285 284 281 279 275 278 272 273 273 267 273 272 280 283 282 285 289 289 288 289 288 289 290 289 289 289 290 289 289
292 289 286 299 302 304 305 305 297 293 288 282 285 285 293 290 294 296 297 296 293 293 291 291 293 289 290 290 289 286 289 290 288 288 289 289 288 288 292 294 289 288 290 287 285 287 282 282 275 282 284 284 282 283 283 285 283 282 282 281 283 281 282 279 278 277 276 269 268 272 272 280 282 286 288 290 291 292 294 293 290 291 290 290 289 289 288 288
294 288 288 300 302 303 304 299 291 285 285 289 291 288 291 289 294 295 296 298 296 297 293 293 292 290 290 288 287 290 287 288 289 288 289 287 290 284 292 294 291 288 288 287 286 286 282 282 279 280 281 281 279 282 282 287 288 287 286 283 285 281 277 277 277 277 272 274 269 268 276 282 282 286 291 290 291 292 293 293 290 289 289 289 289 288 287 287
289 282 286 301 303 303 298 287 287 292 289 286 285 290 289 297 293 293 295 297 297 294 294 295 294 292 291 290 290 289 289 287 289 288 288 287 292 287 286 296 292 292 290 286 287 285 283 282 282 275 279 282 284 285 283 284 284 283 286 285 285 284 280 275 275 272 273 275 271 271 269 280 286 287 288 290 291 291 290 288 290 289 289 288 288 287 287 286
288 285 299 302 303 301 293 286 290 288 286 290 294 294 296 295 293 294 293 294 293 293 292 293 292 291 291 291 290 289 290 287 289 287 288 285 289 288 287 293 293 292 292 286 288 286 290 282 279 279 281 281 283 284 285 284 285 285 282 280 282 284 282 280 276 274 277 272 274 272 273 279 284 283 284 285 285 284 281 283 288 288 288 289 288 288 287 286
290 289 292 302 304 301 291 282 281 283 288 292 291 291 296 293 294 292 292 293 293 292 292 292 292 295 292 294 292 289 292 285 289 290 286 284 287 287 290 291 293 291 292 289 290 291 285 281 283 273 273 277 279 285 283 284 284 280 281 281 281 281 279 277 277 276 277 275 277 274 276 276 284 282 283 284 285 286 285 283 284 287 288 288 288 288 289 289
291 294 295 299 302 299 287 289 288 287 287 287 289 289 291 291 295 295 294 292 295 295 293 292 294 294 292 294 292 293 293 291 286 290 285 286 288 287 291 291 295 292 294 292 294 293 284 281 283 277 275 273 272 274 278 281 281 280 280 281 283 284 282 282 279 276 278 280 280 278 280 281 280 282 287 285 285 286 285 284 282 284 287 288 287 288 289 290
287 283 291 294 298 296 294 297 293 290 287 288 287 289 292 288 293 295 296 294 296 295 295 294 293 295 292 292 290 289 290 292 290 286 286 285 285 286 290 292 294 293 293 295 293 293 282 283 285 285 282 280 282 283 284 286 284 283 283 285 285 287 287 287 282 277 280 281 280 284 284 281 284 286 284 286 286 286 287 285 286 287 285 285 285 285 287 289
294 288 289 284 293 292 290 293 291 292 287 290 285 290 288 288 291 292 297 291 295 294 290 292 291 291 289 291 289 289 291 289 288 289 288 286 285 286 289 291 293 294 294 293 294 291 284 284 285 284 285 286 284 280 285 289 285 287 285 284 286 286 285 286 282 283 281 277 278 284 283 282 281 280 282 283 285 284 284 285 285 283 285 285 285 286 289 289
287 291 295 294 288 283 285 287 292 290 291 292 288 292 289 287 289 288 293 294 294 293 290 289 292 293 291 291 291 287 288 287 286 286 289 288 286 286 287 289 291 293 294 292 294 292 287 285 286 285 285 284 280 283 285 287 287 286 286 286 284 285 284 284 284 286 283 283 281 281 284 283 284 285 285 286 287 288 288 287 286 285 283 282 285 288 289 291
294 296 294 299 289 291 290 290 291 290 290 291 290 291 288 288 288 291 291 291 291 290 293 287 289 291 292 293 292 288 288 284 282 287 287 285 286 286 285 286 290 292 293 290 291 288 288 285 285 285 285 283 281 282 284 285 283 283 285 285 286 285 284 286 286 287 286 285 286 280 283 284 285 287 287 287 287 288 286 285 284 284 285 284 285 286 287 289
292 291 290 296 294 292 292 292 291 290 288 292 288 290 290 289 288 291 293 292 288 289 294 290 290 291 292 293 293 289 290 291 289 286 289 288 285 287 286 287 286 285 289 288 289 283 288 280 287 282 280 278 280 281 283 283 283 282 282 284 285 286 286 286 287 287 286 286 287 283 282 283 286 285 286 287 287 286 287 285 288 288 286 285 285 286 287 288
299 300 299 292 289 291 292 291 290 289 287 290 288 290 291 291 290 292 291 295 292 290 292 290 292 292 292 292 292 292 294 293 293 292 291 290 286 289 287 283 288 286 286 285 284 284 283 277 278 278 277 274 277 279 279 279 280 280 280 282 284 284 283 285 284 285 283 284 285 284 283 285 285 288 289 289 288 288 288 290 290 290 288 284 284 287 288 289
297 302 301 296 289 292 289 290 290 289 285 289 290 290 291 291 293 294 290 294 295 296 295 294 293 292 290 291 290 293 295 296 295 294 294 295 293 290 289 290 291 288 286 286 283 283 279 277 276 277 279 272 276 279 280 278 277 276 280 283 285 285 286 285 287 287 288 288 284 283 285 286 288 290 290 288 288 290 290 291 292 291 289 288 289 290 290 290
Wind_Speed
7 6 7 5 13 21 19 24 25 24 24 24 22 22 21 21 20 21 21 18 18 19 18 17 16 15 14 14 11 13 11 5 4 3 5 6 7 5 8 8 8 6 4 6 6 8 4 4 5 7 6 5 4 3 3 3 2 2 1 4 1 3 4 4 5 8 1 1 4 0 2 2 3 1 1 1 4 2 0 2 3 3 3 3 5 2 2 10
6 4 4 7 5 10 22 21 23 23 23 24 22 21 21 21 20 21 21 18 20 19 18 17 16 15 14 13 13 10 6 3 6 5 12 3 8 9 7 8 8 5 6 5 8 7 9 3 4 5 5 1 2 1 3 0 1 2 2 2 7 5 4 6 3 5 1 3 3 2 1 2 5 6 3 3 1 1 0 4 1 4 5 3 1 5 7 11
4 6 3 7 7 6 12 22 25 27 25 24 23 23 23 21 21 20 20 19 19 19 18 17 16 14 14 13 10 7 5 2 1 7 9 5 9 10 7 8 7 6 2 4 5 10 10 11 8 7 3 2 6 2 4 1 1 1 3 3 4 7 2 4 3 2 6 1 3 3 1 3 2 3 1 3 3 1 7 6 2 3 6 1 3 6 7 9
9 7 9 7 2 5 10 17 25 25 25 25 24 23 22 22 21 21 20 19 19 18 18 16 15 15 13 13 10 4 5 4 6 4 3 9 8 8 9 9 8 5 2 2 2 4 7 10 7 5 3 3 3 2 2 1 1 1 2 3 2 2 1 2 6 4 4 3 1 1 0 2 2 4 2 4 4 5 7 7 10 12 10 6 6 9 8 10
8 8 7 7 4 7 8 12 20 27 28 26 25 24 23 23 22 21 20 20 19 18 17 16 16 15 14 13 9 6 6 2 6 8 8 15 11 9 11 11 8 5 4 4 8 7 10 10 6 3 3 3 1 2 2 1 2 2 3 1 2 1 1 3 5 5 2 3 1 0 1 4 1 0 3 9 8 10 9 9 8 6 7 12 12 11 9 11
5 8 4 8 7 8 8 8 11 24 27 26 27 24 23 23 22 22 20 20 19 18 18 17 16 15 15 12 7 5 9 8 1 0 7 19 16 12 12 10 8 5 7 5 5 7 11 4 8 3 1 2 5 6 3 1 1 2 2 2 2 2 2 1 1 1 3 2 3 1 4 1 5 1 1 5 11 2 2 2 9 6 7 8 10 12 10 12
4 4 3 5 6 9 7 5 9 16 25 27 24 25 23 22 23 22 20 20 19 19 18 17 17 16 13 10 3 6 10 4 2 4 1 15 16 14 13 11 9 6 5 5 7 6 7 7 5 4 4 2 0 4 3 1 3 2 3 3 2 2 3 1 2 4 1 7 3 3 1 2 3 6 0 5 7 1 4 3 3 6 7 7 11 13 16 16
3 2 2 3 3 2 5 3 5 14 22 25 27 26 25 23 22 22 20 20 20 19 18 18 17 16 14 7 6 5 6 7 2 3 3 11 12 15 13 8 8 6 5 9 9 7 7 9 6 4 3 7 3 7 2 3 1 2 2 2 4 1 3 4 3 3 2 5 1 2 2 2 6 4 1 7 9 5 4 3 4 6 8 6 10 13 11 12
9 6 2 4 3 1 4 3 5 9 16 22 25 27 26 23 23 22 21 21 20 19 19 18 19 16 12 6 5 7 11 3 3 5 6 8 10 12 14 5 3 10 7 4 7 9 9 5 4 6 4 4 2 5 3 5 6 4 3 0 3 5 5 5 3 1 0 0 2 2 4 2 3 2 3 11 3 4 3 4 4 5 7 9 12 13 12 12
12 10 8 4 2 1 4 3 7 8 7 13 25 27 29 27 24 23 22 21 20 19 19 20 18 17 7 7 6 9 3 3 3 0 9 9 9 11 9 10 8 8 7 7 3 7 8 6 9 3 7 3 4 1 1 7 4 3 1 3 3 8 6 2 0 1 1 1 2 4 1 1 1 3 8 1 1 2 4 4 2 5 9 10 9 10 10 12
13 11 8 5 4 2 1 6 4 5 7 7 13 24 26 27 26 24 23 22 21 20 19 19 20 13 7 7 11 9 1 2 1 2 9 11 10 12 9 10 8 10 9 4 7 9 4 9 6 4 2 2 4 1 2 3 3 3 2 0 4 4 6 4 3 4 0 1 4 4 2 1 2 0 10 2 1 2 5 3 6 5 5 7 8 9 9 9
13 11 8 7 4 4 4 4 3 7 5 7 11 22 24 26 27 26 25 23 22 21 20 18 19 7 3 8 8 5 2 1 1 4 8 11 6 5 8 9 7 8 11 9 6 1 8 10 10 5 5 4 2 0 3 3 1 1 3 5 3 5 11 1 3 1 2 2 4 5 1 0 1 6 8 0 1 3 4 4 3 6 5 5 5 5 6 10
10 11 10 6 4 4 3 4 3 3 7 8 10 19 26 24 26 25 24 23 23 22 21 20 14 5 7 8 4 2 1 1 5 7 7 6 5 5 4 3 4 3 3 9 6 3 3 9 8 6 2 6 6 2 0 2 1 0 3 2 3 2 7 9 1 0 3 2 4 1 5 5 8 13 4 0 4 4 4 4 5 5 5 4 5 6 7 4
7 9 8 8 6 4 5 4 3 4 4 3 6 13 27 24 22 24 24 21 24 23 21 21 7 6 7 3 1 2 1 2 7 7 7 7 10 3 5 3 5 2 2 3 4 4 5 4 8 7 1 4 3 1 2 2 2 5 1 2 3 1 6 2 0 0 2 2 2 1 4 6 6 11 3 3 4 6 5 5 5 6 5 5 6 6 8 7
9 8 9 7 5 5 4 4 4 2 5 6 1 10 19 26 25 23 22 20 22 21 21 13 5 6 8 2 1 4 3 4 7 5 6 12 10 6 5 4 5 3 2 5 5 3 6 9 9 4 2 1 4 3 2 1 3 1 2 7 0 6 4 5 2 3 5 1 2 4 4 8 9 9 2 1 4 5 6 6 6 5 6 6 6 7 7 9
12 9 8 8 6 5 5 3 3 4 4 6 4 3 11 24 23 23 25 20 23 22 13 10 7 5 4 6 1 2 2 5 7 6 2 5 10 8 6 6 4 4 5 3 3 3 3 5 4 4 3 2 4 6 4 2 1 3 5 1 4 3 3 5 3 2 3 1 0 5 5 3 5 5 2 0 6 5 6 6 6 7 7 6 7 7 7 6
8 9 7 6 8 6 4 4 2 2 5 4 5 7 3 15 25 25 22 23 17 12 13 9 7 5 8 1 3 6 5 3 3 3 2 2 5 10 10 6 3 4 7 5 3 6 2 4 1 3 3 4 3 6 5 2 2 6 0 6 2 3 2 5 3 1 1 3 2 1 3 5 3 7 4 2 4 4 5 8 7 5 5 6 5 5 7 7
8 7 7 6 7 7 6 4 3 3 2 3 5 2 3 13 27 25 17 14 8 5 5 4 9 8 7 2 11 11 4 6 4 5 3 0 7 11 8 5 3 9 8 5 1 4 1 3 1 5 2 3 4 6 9 12 14 9 5 4 3 0 2 3 1 2 3 0 4 1 4 7 8 9 7 1 1 4 7 7 4 4 5 6 6 6 7 8
9 9 8 8 6 6 5 6 5 4 2 5 8 6 9 15 19 11 13 13 14 8 8 11 14 15 10 22 7 9 7 8 7 9 4 8 2 5 6 4 9 12 7 6 2 3 1 4 5 4 6 6 10 11 8 2 5 5 4 3 1 2 2 1 4 3 1 2 4 4 6 7 11 11 12 2 1 5 6 4 5 6 6 5 7 7 7 9
8 8 8 8 7 6 6 5 6 5 5 4 1 3 2 5 3 2 6 14 13 15 2 20 20 5 11 16 7 4 9 7 9 1 4 3 10 9 5 4 3 4 9 8 5 3 2 7 7 8 8 8 5 4 6 2 5 6 4 3 1 2 4 3 3 3 2 2 5 6 5 7 8 9 13 0 0 2 4 6 7 7 7 7 7 8 9 10
7 9 8 7 7 7 7 7 5 5 5 2 3 2 4 5 8 3 9 12 17 7 7 15 16 2 3 9 12 17 12 2 3 4 7 3 9 15 5 6 6 7 3 6 9 0 5 7 7 8 10 12 10 7 3 3 3 5 6 3 0 2 3 2 2 3 3 3 3 1 2 8 11 11 12 1 1 7 7 7 7 9 9 8 7 9 10 13
6 9 9 8 7 8 8 7 6 4 6 2 5 5 4 8 4 5 3 10 6 4 3 13 5 6 2 10 15 16 9 6 3 4 2 5 13 14 5 8 10 11 3 6 6 4 3 8 10 9 5 5 5 6 4 3 4 3 2 3 2 2 3 8 1 3 3 1 7 2 3 7 9 12 13 5 7 7 7 9 10 9 8 7 8 10 11 6
6 7 10 9 7 8 9 6 6 5 1 3 7 10 8 2 10 10 1 7 4 2 3 11 7 7 6 3 3 11 15 16 14 11 9 4 13 8 12 10 10 10 5 9 10 7 3 6 13 5 7 8 3 5 5 3 1 3 4 2 3 2 2 5 2 1 1 2 3 1 5 8 8 7 12 8 8 7 8 7 10 7 8 10 12 10 7 8
6 7 9 9 5 9 8 7 5 4 5 8 10 13 3 5 5 8 4 5 6 1 3 5 6 9 11 11 4 9 15 3 9 14 3 5 12 5 10 12 14 9 11 11 11 13 12 4 4 10 9 10 7 6 7 6 5 2 3 3 2 1 2 2 4 9 4 1 1 4 7 8 7 9 9 3 1 4 8 5 6 8 8 9 6 5 7 11
7 7 9 8 6 5 8 5 5 4 3 8 13 8 1 2 4 5 4 1 1 1 1 4 2 1 7 4 4 9 2 4 4 5 3 6 9 8 5 4 7 11 13 8 7 8 5 2 9 13 8 7 7 6 6 7 5 2 3 5 3 2 3 3 4 8 6 5 2 1 4 7 4 5 9 9 5 5 3 3 9 11 8 6 9 13 10 9
7 7 9 9 4 6 6 3 5 4 7 12 6 3 5 5 2 3 0 4 9 5 7 13 5 8 2 4 5 3 12 7 0 1 5 2 2 5 5 6 3 13 12 10 10 3 4 3 11 13 10 6 8 7 8 9 7 7 6 9 6 6 4 1 6 3 4 2 1 1 4 7 6 5 4 4 5 9 8 4 10 9 8 7 10 12 12 12
8 7 7 9 7 8 7 6 5 8 8 11 6 6 6 6 5 5 3 3 9 9 15 4 11 4 4 9 11 15 13 9 3 3 5 3 5 2 15 9 4 2 4 4 2 8 5 4 5 7 10 12 8 9 5 11 7 4 3 11 7 4 3 3 4 3 6 3 4 2 2 5 7 9 5 2 4 8 10 9 8 10 9 10 10 12 12 12
8 7 6 9 10 11 6 2 9 8 15 1 8 6 5 6 9 6 5 4 7 11 10 4 2 3 3 7 13 9 2 19 10 7 0 1 1 1 3 15 14 18 12 9 15 0 13 8 11 9 7 7 10 8 7 9 7 5 4 10 9 7 6 5 2 3 2 3 9 1 1 2 5 7 4 1 5 7 9 10 9 9 10 10 11 12 11 11
7 7 6 7 10 14 8 2 3 13 3 5 6 8 4 4 8 6 5 5 2 3 3 14 4 6 11 10 6 3 4 8 8 5 3 3 4 1 6 7 7 13 9 12 9 0 1 10 15 15 11 10 6 6 10 13 7 5 4 5 5 5 2 2 3 1 2 1 11 4 0 3 9 5 5 2 2 6 8 10 10 10 10 9 9 9 8 7
8 8 8 6 4 5 5 4 8 2 6 8 6 8 10 7 4 8 8 7 5 5 7 4 9 14 18 17 9 7 14 1 4 3 4 4 2 2 1 1 7 13 9 1 3 3 1 5 3 7 10 7 7 2 8 14 6 5 7 5 4 3 2 3 2 2 1 7 7 1 3 3 9 6 9 6 6 6 7 7 7 7 7 8 7 9 8 6
10 10 9 7 5 2 4 9 13 5 1 6 12 7 4 5 9 8 12 1 5 4 5 13 10 17 20 22 11 6 10 8 10 16 5 1 2 4 3 8 7 6 3 2 2 2 2 2 4 2 3 5 5 4 5 0 5 8 2 4 5 1 3 2 1 2 3 9 1 1 1 4 8 4 6 7 4 3 5 6 10 11 11 7 5 6 6 5
11 11 11 7 4 4 9 11 5 6 6 2 11 8 8 13 3 11 6 2 11 8 13 12 16 17 21 14 14 15 14 10 14 15 15 8 9 10 10 13 14 12 11 12 12 2 1 4 2 1 4 11 5 7 2 2 1 4 4 6 7 2 3 3 2 5 9 5 1 0 2 1 16 10 6 6 8 6 6 11 14 10 8 7 6 8 7 6
12 11 12 9 6 6 11 1 4 6 9 7 7 10 10 8 14 6 2 8 3 11 6 14 23 24 21 19 13 12 6 13 10 13 17 7 12 7 5 5 8 4 13 14 9 6 5 2 0 3 3 4 12 11 5 4 4 6 7 6 7 5 4 6 2 1 4 5 4 1 1 6 5 6 13 13 15 16 16 12 10 10 12 11 9 6 7 8
14 12 8 6 6 9 1 4 4 11 11 10 11 13 11 14 9 6 6 4 4 2 10 12 17 14 22 14 15 15 8 5 17 12 16 12 11 12 9 5 12 6 6 8 12 13 8 5 10 9 4 3 8 9 13 7 7 11 4 8 6 3 4 4 3 7 6 7 1 2 2 8 3 4 2 12 10 7 7 8 6 6 7 6 6 9 10 11
13 11 7 6 6 7 5 6 7 9 11 11 13 14 17 15 2 9 5 5 2 7 7 10 18 21 11 9 8 8 2 8 11 14 9 17 12 12 16 15 11 5 3 14 4 3 15 3 3 0 2 8 10 3 7 8 7 4 4 5 4 8 5 3 5 4 3 2 3 3 7 2 4 4 8 6 10 12 10 11 6 11 6 4 6 8 9 9
8 6 4 7 7 3 9 10 8 9 12 13 15 14 18 11 7 4 6 6 7 11 11 15 14 17 10 9 8 10 7 7 9 10 8 11 14 16 13 9 14 13 14 14 7 7 3 7 1 4 3 6 12 8 4 10 9 6 7 11 8 5 5 3 2 1 2 2 9 2 8 7 7 8 10 13 6 11 6 8 5 7 5 3 7 9 9 7
6 3 8 9 12 7 10 11 8 11 13 15 17 17 7 2 3 6 8 16 14 18 19 19 12 14 9 8 10 8 3 9 13 8 9 10 7 8 10 5 10 10 9 9 2 2 13 3 1 4 3 1 2 1 3 2 4 8 7 8 3 2 4 4 4 1 2 7 8 3 10 4 3 11 3 3 13 15 13 10 4 4 4 4 8 8 6 6
6 6 12 14 12 9 11 11 12 13 14 15 19 17 2 6 4 9 5 7 9 16 17 14 6 16 15 17 14 17 14 15 12 9 9 13 5 18 15 11 10 14 11 2 7 4 7 4 1 0 1 2 2 4 3 1 2 7 7 6 9 4 5 2 2 5 1 3 6 3 2 7 10 11 4 4 3 11 14 13 2 6 5 6 7 9 6 5
7 8 12 16 13 12 13 12 12 16 15 14 17 21 8 3 5 8 12 13 15 17 16 9 11 7 12 15 16 16 21 15 18 13 15 10 7 15 20 14 12 13 9 5 4 4 1 7 2 1 3 1 0 3 12 4 3 1 3 4 1 4 2 4 7 3 5 7 1 8 4 15 5 7 9 12 9 10 10 9 10 7 5 5 6 6 5 6
10 6 16 9 16 16 15 14 15 14 14 20 18 14 6 11 8 9 16 18 11 13 10 15 13 15 17 13 19 14 9 12 19 10 11 9 9 1 22 10 6 11 14 3 2 5 4 2 6 1 2 2 5 4 9 12 9 3 3 4 1 1 2 4 1 5 5 3 3 5 8 8 3 8 10 11 12 14 15 17 8 5 5 6 5 6 6 6
8 10 11 13 18 18 15 14 16 20 18 13 13 15 13 7 11 11 16 19 10 6 6 15 15 14 16 14 10 8 6 10 14 13 9 5 15 6 10 17 11 14 6 0 3 5 4 1 10 3 3 6 6 2 4 11 11 10 11 11 12 9 5 6 9 3 1 2 5 1 14 8 3 2 10 11 11 11 11 16 5 2 5 5 5 5 5 6
11 14 13 18 23 24 18 22 12 13 12 19 18 12 9 8 10 17 14 14 13 10 2 7 11 10 13 14 20 19 16 14 13 10 8 10 15 3 3 14 10 16 15 12 10 1 5 4 9 5 4 4 1 1 3 0 2 4 8 9 8 6 5 4 7 3 2 3 3 1 3 14 4 7 7 7 8 10 9 5 8 3 4 4 5 4 5 5
15 21 4 21 25 28 22 19 15 17 17 13 8 13 9 10 10 14 18 12 10 1 2 6 11 9 4 7 11 10 10 6 17 14 8 5 7 6 5 17 16 16 12 2 5 5 7 5 7 2 1 3 3 3 0 1 2 1 2 2 6 10 7 7 5 6 6 1 0 2 6 7 2 0 5 6 6 6 3 1 5 6 5 5 5 4 4 4
11 17 15 18 30 28 24 25 26 24 13 13 21 15 12 7 13 16 17 19 10 6 7 5 4 8 11 11 17 18 16 8 10 13 6 3 4 6 14 15 24 14 17 13 16 10 6 2 10 5 3 1 5 2 2 1 1 1 4 2 3 5 7 4 6 1 1 7 7 6 18 7 3 2 3 5 5 7 6 3 3 6 5 5 5 3 3 4
11 15 14 17 27 27 28 19 19 19 18 20 19 23 19 10 11 21 21 21 13 12 10 9 12 12 7 12 14 16 19 16 8 11 3 6 4 2 15 19 23 16 11 7 8 8 3 7 10 10 13 13 10 10 16 16 11 1 1 5 6 9 10 5 5 5 7 11 15 8 17 2 3 3 0 2 1 6 6 7 4 6 7 6 3 3 4 3
16 15 14 19 21 21 18 20 20 23 24 22 18 19 19 8 7 15 19 19 19 16 14 13 7 11 9 15 14 11 15 6 12 9 6 5 3 2 10 18 20 14 12 16 13 10 2 2 7 11 15 17 20 9 7 17 8 11 12 16 15 14 17 11 3 4 18 6 10 22 16 1 0 0 1 4 2 7 7 4 4 6 7 7 5 5 4 4
11 19 17 17 13 20 22 24 23 21 24 24 17 17 22 17 12 12 21 11 14 11 3 6 9 14 9 18 13 10 14 10 1 16 18 13 4 3 7 17 16 15 19 13 16 8 4 5 11 10 12 14 2 3 8 20 18 17 16 16 14 13 11 15 12 22 6 11 15 12 5 9 6 4 5 5 5 5 6 7 6 4 5 6 5 4 6 5
21 13 18 21 20 18 24 23 22 21 16 23 17 18 22 21 21 17 14 9 13 9 11 4 15 17 22 22 18 14 15 9 8 14 14 11 11 7 7 6 11 14 20 10 14 12 11 12 14 12 14 8 1 7 10 13 14 14 17 15 14 14 13 18 23 17 9 14 18 8 12 9 10 8 8 8 7 8 9 7 7 6 4 4 3 4 5 6
8 8 12 22 17 22 23 21 27 26 25 25 12 19 23 25 24 20 16 10 12 11 11 12 18 18 19 18 17 11 16 12 9 8 15 11 15 17 12 6 8 13 17 9 12 4 9 10 8 10 13 4 2 3 8 11 3 4 12 15 17 17 20 25 25 20 17 17 13 6 7 14 5 10 9 8 8 6 3 1 1 2 5 4 5 5 6 7
18 19 16 16 11 24 27 27 27 26 22 24 18 17 18 22 23 17 15 21 16 15 12 13 20 21 23 21 21 18 23 24 23 21 18 26 14 13 16 18 14 6 8 11 9 3 8 6 8 5 5 1 4 4 1 2 7 6 5 8 12 17 22 25 23 16 15 17 15 5 6 12 7 5 5 8 5 2 0 4 8 9 6 7 6 6 7 8
12 16 18 18 20 21 20 23 24 27 20 19 17 15 17 22 21 19 13 14 24 19 17 21 23 21 22 24 24 23 25 29 24 24 17 21 22 15 12 5 12 19 10 6 2 1 3 2 2 5 6 1 3 5 4 6 3 1 4 9 15 20 21 20 13 8 6 20 11 10 16 19 2 7 7 9 3 3 6 8 7 7 7 5 5 8 9 10
4 14 23 21 18 20 20 19 23 24 23 21 17 17 16 26 19 20 13 11 18 23 26 26 24 19 16 24 27 28 27 26 17 8 16 17 8 10 8 11 13 14 9 8 1 6 4 5 4 5 8 3 3 4 8 5 3 3 10 20 26 18 13 5 9 12 21 16 8 17 24 4 10 12 13 8 7 9 10 9 11 11 9 8 10 11 12 11
Wind_Direction
192 240 316 327 330 211 204 191 173 171 173 172 172 172 171 171 170 173 173 172 168 172 169 166 161 157 152 148 147 149 147 132 134 151 187 217 164 175 169 109 116 132 121 117 111 90 40 51 32 352 28 25 326 7 304 36 65 57 97 114 206 203 150 206 174 189 172 355 319 342 275 152 203 127 197 116 33 69 355 249 307 308 250 264 278 304 161 138
155 239 285 320 311 309 207 204 175 172 171 172 169 170 169 170 170 171 173 169 170 170 168 164 162 159 152 154 152 152 111 107 178 176 207 152 158 157 163 117 123 134 120 111 130 120 117 105 96 52 62 36 331 287 358 10 30 88 110 123 225 172 235 154 198 178 112 297 243 235 185 232 235 143 219 147 275 85 191 263 31 323 296 338 60 112 139 148
170 180 271 278 289 331 265 209 188 173 172 171 171 169 169 169 170 170 170 169 168 165 165 163 161 161 159 153 156 151 102 43 40 232 224 182 166 167 149 125 124 147 120 153 168 146 150 159 145 103 16 92 7 304 2 337 9 187 122 226 256 208 243 214 189 181 203 191 292 305 283 133 256 173 121 202 162 90 201 206 280 261 237 228 133 138 152 156
197 192 202 230 258 284 319 235 195 175 171 170 169 169 169 169 169 169 169 168 165 164 162 161 161 159 158 158 145 142 82 59 241 235 222 175 175 150 147 138 141 140 93 49 105 110 97 105 116 109 105 75 316 8 7 321 62 193 104 184 231 187 229 216 190 221 211 165 262 209 67 171 271 211 157 167 122 244 254 230 188 201 208 179 171 157 165 163
199 197 192 193 161 318 275 300 215 181 171 170 169 169 169 168 168 170 167 167 166 164 162 160 159 158 157 156 155 123 97 55 251 212 180 171 172 162 156 146 143 133 136 134 83 91 119 129 118 50 93 154 40 17 295 341 102 137 215 181 159 143 286 248 207 180 139 187 147 341 150 235 88 78 177 160 184 222 213 227 222 216 174 156 167 172 169 170
141 80 115 197 153 215 254 304 255 194 174 171 169 170 169 168 167 168 169 166 167 165 161 159 157 157 157 155 133 132 145 190 260 331 223 165 171 157 144 123 111 114 129 146 124 127 102 94 110 113 54 104 169 159 251 241 48 257 303 240 170 203 264 332 260 233 139 112 151 153 225 91 167 218 152 185 211 231 294 251 198 191 176 174 157 153 170 178
87 88 51 12 198 212 234 291 323 222 180 171 171 168 170 169 166 167 166 168 167 165 162 158 156 155 148 118 102 147 191 245 34 280 158 175 162 144 124 101 102 122 154 129 131 140 135 144 110 157 110 66 293 180 211 61 360 109 230 6 343 151 219 200 269 150 183 135 220 203 51 195 158 222 109 201 235 155 345 304 202 145 133 143 154 176 176 183
249 321 56 199 24 214 226 293 342 325 193 174 171 171 169 170 167 165 166 168 166 167 162 159 157 153 137 130 130 199 186 236 248 304 201 172 146 127 111 105 126 140 152 168 159 147 139 147 156 130 117 162 217 171 177 146 264 271 275 358 291 343 246 274 259 259 194 225 188 139 167 238 191 196 99 245 236 267 353 44 106 127 133 155 170 178 187 189
181 186 211 90 76 344 86 347 327 289 304 189 173 171 172 170 169 166 165 166 166 164 163 157 160 156 154 136 153 151 218 235 194 291 140 141 132 124 123 121 143 151 176 172 185 163 142 215 133 166 208 173 177 169 165 139 263 197 226 174 308 295 306 295 280 247 184 301 137 122 239 278 249 213 262 248 257 222 113 74 104 134 145 168 184 186 184 190
172 179 179 145 142 240 168 228 214 233 252 293 183 175 170 172 171 166 165 165 164 162 161 162 158 159 150 143 122 197 218 284 318 266 126 129 136 132 133 144 141 153 150 183 173 145 172 192 167 167 116 66 156 168 156 185 217 145 173 221 240 287 321 315 348 295 305 212 169 179 225 179 235 132 260 13 327 131 106 115 131 160 178 185 186 192 196 191
182 196 191 180 161 228 109 262 302 224 228 272 233 177 174 170 170 169 165 164 162 161 163 165 160 154 159 162 165 200 221 117 0 137 130 134 144 145 150 155 157 156 158 174 176 179 148 128 123 108 54 208 134 303 111 223 145 129 173 303 260 274 266 263 278 273 291 291 162 170 226 259 301 90 240 205 330 110 138 159 166 188 199 198 198 194 199 204
178 196 184 202 174 186 213 278 271 270 214 251 286 193 179 173 170 168 165 161 160 161 164 161 163 154 109 176 188 192 294 182 69 136 127 138 148 141 135 149 163 159 154 171 196 180 152 147 135 131 179 126 135 217 256 208 120 199 167 234 294 338 299 253 287 1 140 261 154 169 94 285 218 217 244 199 80 111 139 171 204 204 211 211 213 211 207 213
181 177 184 196 178 214 229 258 299 298 257 225 257 223 184 176 170 166 163 159 160 160 163 162 159 171 137 180 204 282 282 228 99 108 104 104 97 64 112 119 120 113 187 156 178 190 150 142 135 97 154 128 159 140 235 72 333 17 52 114 0 343 274 271 355 50 152 253 145 161 266 260 234 237 227 238 116 102 119 181 204 217 218 214 211 211 223 222
191 177 184 187 199 192 232 262 285 312 285 317 339 229 178 176 171 164 162 162 159 160 160 161 146 152 167 183 88 251 262 146 104 116 135 136 102 76 97 43 73 58 66 91 85 136 101 84 93 113 106 105 172 246 64 357 30 201 146 76 226 125 259 299 150 245 191 186 132 94 230 278 272 262 249 208 159 146 195 217 212 215 218 216 210 215 220 225
209 191 189 191 184 208 214 232 271 282 285 267 285 336 190 176 169 167 160 152 159 157 154 139 152 125 189 242 343 275 195 116 136 164 169 141 121 96 124 79 57 37 85 116 127 113 116 100 98 85 120 253 116 99 45 30 357 22 122 232 28 196 291 295 144 173 206 4 76 122 276 236 262 264 199 222 179 159 207 218 214 218 223 219 215 218 224 226
177 210 191 190 188 205 217 208 243 282 295 251 254 177 277 173 169 165 162 159 158 149 138 144 185 139 110 188 220 124 136 139 187 165 247 151 145 145 150 113 110 53 76 32 78 96 83 91 91 177 118 46 77 116 89 63 296 4 213 309 207 108 257 333 253 226 129 118 14 179 218 319 296 295 345 1 168 180 212 233 216 216 223 226 224 223 228 240
166 195 213 201 192 201 217 210 224 27 301 278 187 231 272 209 165 161 164 154 150 149 154 160 159 159 182 332 100 184 183 165 87 116 133 140 129 135 120 112 79 78 71 70 68 97 40 71 263 61 40 128 159 119 108 208 309 226 94 205 201 165 186 217 318 251 210 135 247 258 225 233 265 281 310 2 161 162 207 237 234 223 221 224 234 239 234 234
191 206 211 218 214 198 211 225 199 222 285 262 226 230 260 242 162 154 148 128 92 83 90 33 136 130 246 119 185 200 133 123 164 133 110 311 139 144 132 104 108 106 104 91 349 121 329 91 39 167 63 101 128 155 159 202 199 187 167 179 226 235 184 286 180 273 121 29 200 252 242 269 263 269 279 310 184 169 222 236 260 248 232 228 224 230 235 237
198 206 212 214 221 210 197 209 223 211 222 277 249 245 257 258 155 141 130 134 133 143 166 180 165 197 200 195 141 100 157 146 100 130 156 128 132 96 76 94 118 125 130 124 237 106 342 72 47 99 154 166 187 187 190 114 98 144 140 161 108 196 258 201 262 308 296 273 249 226 221 242 251 267 274 246 177 186 240 282 270 254 245 234 225 227 228 231
211 225 214 214 220 219 208 215 210 213 210 248 248 256 304 239 103 86 138 151 176 172 25 167 181 92 64 101 116 113 78 66 127 293 130 144 128 120 86 109 55 65 139 158 152 173 126 141 173 185 188 181 179 147 127 142 121 121 96 91 196 356 305 300 281 296 348 327 247 239 255 247 254 240 263 2 48 276 280 270 252 249 245 237 233 229 232 231
227 242 239 225 211 215 217 219 214 216 210 200 233 187 224 212 166 161 169 182 179 155 125 164 178 160 124 123 117 127 118 350 3 161 167 163 134 137 173 137 147 136 163 146 141 227 70 143 211 198 183 177 174 161 139 86 70 107 104 81 49 102 322 265 293 313 326 178 299 4 255 261 261 266 263 221 312 267 239 244 259 254 242 240 232 241 237 237
226 242 249 238 217 215 222 220 224 216 223 138 215 214 240 237 58 316 219 163 191 18 164 152 75 70 26 134 159 139 107 105 135 183 232 152 162 165 209 156 164 156 123 114 90 124 136 190 214 205 166 134 131 154 157 135 106 74 108 117 54 305 232 284 289 333 320 126 260 333 277 261 250 254 265 213 224 246 235 210 231 233 250 244 239 242 245 245
224 241 249 246 230 222 217 208 216 221 169 214 222 227 232 323 347 341 342 92 126 317 120 145 133 102 104 357 324 140 142 165 170 191 185 185 161 188 154 155 167 148 136 161 149 137 166 270 232 165 141 128 118 149 164 192 113 111 96 99 173 233 58 235 266 45 317 187 276 310 320 281 279 264 262 244 213 236 245 230 243 229 233 235 232 228 238 246
237 235 250 249 232 227 216 206 194 219 214 222 232 233 6 33 6 314 326 171 147 9 144 150 120 139 150 147 214 154 148 178 146 184 171 161 161 153 150 165 146 149 174 175 158 163 187 244 146 140 152 147 156 161 155 181 219 145 143 110 117 190 216 156 289 327 299 331 47 303 296 285 254 265 281 275 250 285 274 272 274 260 238 248 279 296 228 231
244 245 250 252 231 217 215 183 203 201 171 231 244 246 359 80 154 250 353 33 75 174 39 54 350 220 155 8 140 136 157 57 350 161 166 165 138 132 183 133 142 176 168 165 150 171 248 285 153 147 155 150 133 149 171 144 211 235 201 163 172 168 228 267 309 352 347 334 350 65 330 289 290 274 243 267 332 297 284 281 255 251 246 244 250 248 248 242
255 251 251 255 207 213 126 205 210 163 186 234 226 180 181 136 173 29 109 265 195 150 148 191 157 198 135 146 77 93 128 149 214 252 151 222 356 145 128 168 169 173 158 153 162 202 192 181 154 154 144 144 150 170 196 156 186 190 220 166 175 204 189 266 292 19 302 298 294 80 217 280 326 305 262 287 325 287 291 274 267 269 259 239 235 241 242 235
263 260 247 248 227 154 150 220 114 134 214 227 213 154 162 153 84 60 274 254 223 183 165 121 166 156 153 171 130 133 164 188 117 112 150 305 173 295 158 163 82 62 137 134 66 235 120 162 123 139 147 160 162 189 206 164 148 215 202 163 184 200 166 254 260 201 243 271 292 65 159 255 285 267 269 276 301 288 298 287 266 264 259 245 238 239 237 238
252 258 245 238 232 191 212 82 141 189 214 116 143 146 140 131 94 72 268 226 233 118 177 175 211 43 107 162 157 150 331 128 132 209 344 80 42 358 141 172 170 164 167 147 190 330 144 174 165 166 159 161 189 191 168 157 148 213 193 161 186 189 175 231 233 239 229 346 279 331 355 298 249 272 297 328 275 272 272 269 270 264 256 249 247 247 243 242
240 251 246 229 231 227 213 196 196 217 148 103 128 131 102 70 116 204 226 222 19 96 58 128 250 99 111 124 83 105 112 162 151 125 115 58 24 184 150 181 133 154 173 176 169 47 310 174 181 165 157 189 194 180 152 162 167 262 156 103 95 97 92 161 205 245 291 266 261 262 147 249 272 267 305 339 234 271 261 261 254 248 247 252 259 267 265 265
232 240 240 218 228 254 226 216 237 28 128 129 120 93 102 119 158 226 209 235 127 185 182 122 159 165 146 149 145 151 139 350 94 100 119 152 114 29 340 148 129 146 175 254 94 214 174 327 191 133 189 187 157 123 162 174 185 115 110 84 54 52 78 41 92 124 19 253 272 192 248 180 291 223 207 213 223 199 240 276 268 257 263 268 258 258 268 271
229 231 236 197 190 162 143 221 219 138 308 131 122 111 118 191 208 192 236 204 74 302 91 165 145 149 156 149 145 180 119 133 132 140 145 89 27 21 163 72 56 52 29 155 273 341 26 21 140 247 106 76 108 85 359 60 121 131 126 129 97 29 38 90 343 72 211 258 336 268 157 163 236 296 256 230 261 233 224 250 269 277 268 258 265 268 265 265
233 229 232 215 167 131 204 231 186 161 127 196 128 139 174 232 176 212 195 110 186 199 169 132 143 152 155 156 139 167 148 134 158 153 154 169 158 159 196 161 160 155 187 187 201 80 72 150 251 276 268 139 136 112 355 68 70 94 97 109 135 218 115 260 128 231 215 226 224 123 176 359 238 235 276 263 251 267 216 224 239 252 277 282 267 270 272 264
238 236 239 236 168 208 227 38 72 133 122 154 168 174 207 220 234 154 181 171 258 150 215 152 159 162 158 146 154 133 140 140 168 161 143 158 157 190 197 154 200 156 181 184 147 153 259 286 294 242 78 264 147 154 160 123 198 145 150 160 146 170 170 210 230 346 323 297 255 152 128 268 280 294 223 243 259 243 251 245 241 243 249 262 276 283 290 282
238 238 239 227 214 220 174 116 237 141 144 168 196 173 213 217 218 51 149 235 162 117 151 159 150 137 154 156 153 146 114 167 161 167 152 151 164 172 193 234 198 181 71 138 169 185 160 229 236 150 211 169 170 170 167 158 153 192 137 160 179 139 162 198 184 208 221 218 231 268 84 234 96 249 251 231 247 288 267 267 252 253 254 263 277 283 278 278
250 251 241 250 241 226 138 196 220 172 156 189 217 208 204 218 164 168 163 162 249 137 137 142 144 143 148 118 146 148 82 149 172 144 170 151 182 177 181 191 199 128 132 141 257 103 205 206 289 248 296 152 176 190 139 120 140 204 173 77 141 223 129 166 204 151 219 260 279 207 210 189 187 265 282 213 259 267 271 273 271 268 263 252 281 268 264 261
262 253 242 238 237 163 166 206 194 187 188 196 220 219 215 198 208 160 177 143 160 149 139 145 150 149 149 122 165 157 346 119 185 147 161 181 174 184 191 181 182 182 165 176 151 159 65 236 3 329 56 171 181 146 189 157 177 210 118 206 204 176 141 89 45 13 83 36 256 135 289 278 303 291 265 278 254 269 253 252 254 275 284 281 264 262 260 259
246 256 239 226 230 170 184 201 178 198 196 202 223 233 204 246 207 152 161 172 172 143 149 158 185 155 146 144 158 158 108 103 161 159 164 164 188 208 190 223 187 187 202 133 172 261 161 152 14 74 169 325 10 308 123 9 143 108 187 212 134 109 111 145 218 354 179 224 264 116 242 295 311 284 318 314 259 262 273 261 272 274 286 278 252 257 267 278
245 235 250 241 216 177 196 186 183 202 202 204 220 229 126 215 200 160 146 142 145 167 159 167 175 160 163 154 180 158 171 150 169 160 161 182 207 189 194 193 190 192 185 278 131 230 129 83 262 258 183 298 354 108 53 355 2 149 195 185 140 235 238 299 113 241 150 265 269 291 279 258 211 246 336 331 258 255 274 290 311 275 255 251 280 282 283 296
240 249 251 230 202 184 188 175 190 201 209 206 209 225 172 268 169 178 170 162 167 166 174 186 143 207 159 179 162 166 169 167 167 173 154 202 201 187 196 179 189 183 175 162 129 155 51 127 309 327 136 238 67 144 189 184 352 66 83 104 330 103 154 139 195 176 123 250 27 286 47 261 161 215 201 241 263 267 258 256 271 272 285 274 267 276 294 298
236 233 245 181 179 180 183 176 201 203 206 213 201 220 135 199 193 179 170 167 180 176 190 163 187 157 179 175 157 159 190 154 166 181 178 175 194 260 195 195 156 168 179 150 130 177 167 121 153 268 338 101 174 212 202 155 155 117 117 172 172 81 254 113 96 148 185 194 203 277 300 263 230 194 184 217 223 242 256 268 248 259 266 270 275 284 294 290
223 240 248 163 165 175 167 188 201 204 203 217 219 204 188 196 176 184 182 180 169 231 174 179 168 180 166 142 158 152 144 149 167 173 187 154 185 164 209 186 154 168 118 60 117 186 117 114 147 142 118 207 256 241 179 175 177 170 171 189 180 137 151 169 239 49 94 151 232 229 263 265 266 167 195 199 226 229 240 256 238 228 268 255 264 274 257 282
228 232 235 149 164 168 168 203 202 194 208 205 204 182 184 199 182 172 185 192 188 179 279 175 182 164 167 167 156 167 154 163 181 181 201 176 204 190 213 163 144 152 162 185 177 214 139 107 104 151 203 175 228 334 265 192 98 179 166 208 171 167 114 155 199 255 30 246 113 171 296 273 209 182 216 213 218 233 253 285 288 239 242 264 265 266 275 245
224 239 190 162 165 169 177 206 188 195 207 204 166 195 183 196 189 177 171 191 196 186 124 171 175 140 182 144 154 143 153 143 169 193 177 192 201 175 190 151 145 160 160 128 88 199 91 100 87 11 336 302 307 264 328 322 110 129 327 63 140 185 175 167 160 185 162 253 178 304 262 268 321 300 253 261 274 291 323 223 278 290 293 283 283 283 281 294
236 238 231 178 171 172 181 196 190 194 187 196 199 195 188 193 180 177 181 179 182 176 172 151 168 187 155 157 154 166 167 129 209 180 179 192 185 173 152 147 154 168 174 191 177 186 143 246 119 121 55 354 339 313 321 325 298 214 150 170 124 97 83 129 102 105 265 212 165 132 250 239 266 288 287 268 287 298 297 288 212 265 273 271 273 277 292 290
244 246 221 176 175 176 192 187 186 181 191 193 185 194 186 197 206 185 175 177 181 177 170 195 177 163 162 155 172 167 180 169 152 214 86 183 150 114 163 161 168 173 192 117 114 132 95 176 143 153 160 170 187 192 208 203 186 191 90 122 150 142 133 126 195 192 223 216 168 205 244 248 280 306 327 285 308 292 265 246 265 233 262 273 296 318 314 297
211 247 168 172 176 178 187 188 192 183 183 186 188 195 184 183 192 204 183 181 182 174 184 169 177 152 146 160 171 179 182 199 156 161 156 162 154 211 179 170 172 177 165 140 141 134 151 146 181 178 180 186 197 194 66 100 119 178 193 167 185 182 179 179 136 117 222 212 171 228 222 290 341 254 284 275 194 240 257 258 235 261 275 278 271 276 277 274
221 222 169 175 134 174 181 189 187 182 192 178 189 177 186 183 173 193 188 177 199 165 129 146 149 159 174 163 171 180 195 171 110 154 177 153 179 152 170 175 179 168 150 147 153 121 120 172 211 200 216 220 133 145 186 145 173 191 166 190 183 173 173 182 174 221 118 83 235 234 153 215 247 270 265 265 263 248 250 249 259 265 259 253 265 283 291 295
218 201 175 165 154 164 169 190 184 189 186 184 192 172 180 177 179 179 185 196 161 186 160 125 170 176 166 175 166 179 185 194 151 179 176 170 135 136 125 220 178 179 164 173 168 162 178 204 205 191 220 208 90 151 165 166 183 185 179 180 178 184 174 193 216 213 130 202 233 121 166 207 217 216 221 214 209 205 215 221 219 235 271 291 296 289 283 269
217 159 173 152 163 162 177 165 173 178 186 188 196 188 181 180 182 178 171 158 175 189 181 158 176 174 176 174 171 175 175 174 222 187 172 168 174 154 160 171 231 181 174 168 180 172 162 225 200 189 210 148 20 146 177 164 154 128 189 191 191 179 194 207 218 212 201 224 225 168 185 216 190 212 211 221 216 205 212 207 337 257 248 239 245 259 258 258
180 170 170 158 100 156 159 157 178 180 189 185 195 192 185 186 182 173 174 169 170 190 169 173 174 175 176 178 181 185 184 194 186 185 187 169 176 173 172 175 160 201 188 173 169 305 162 230 135 149 174 207 6 32 21 131 148 184 222 203 199 203 209 214 218 216 219 248 246 274 290 266 244 216 249 262 229 199 148 242 232 236 238 223 219 243 259 259
173 159 147 152 152 165 159 169 168 177 183 185 196 183 186 187 188 176 182 183 171 172 181 184 175 176 180 181 190 197 193 197 192 191 178 170 173 187 153 221 154 153 174 147 148 47 85 200 58 97 155 246 1 69 44 57 39 149 214 210 214 213 217 222 220 209 184 232 223 248 256 247 135 226 233 249 285 269 257 259 258 254 244 226 234 248 251 257
186 151 152 144 150 165 164 166 175 168 189 188 176 178 182 184 179 171 176 205 192 181 180 182 175 170 180 189 198 202 197 197 192 186 165 176 144 99 97 127 132 143 136 152 118 126 133 112 103 131 153 219 306 150 99 82 55 316 251 222 214 213 221 221 230 214 215 213 192 220 239 112 193 196 219 233 231 240 245 250 259 260 252 243 242 245 245 245